TimeCDT,TemperatureF,Dew PointF,Humidity,Sea Level PressureIn,VisibilityMPH,Wind Direction,Wind SpeedMPH,Gust SpeedMPH,PrecipitationIn,Events,Conditions,WindDirDegrees,DateUTC
12:52 AM,73.0,64.9,76,29.94,10.0,SSE,4.6,-,N/A,,Clear,160,2013-09-08 05:52:00
1:52 AM,72.0,64.9,78,29.94,10.0,South,4.6,-,N/A,,Clear,170,2013-09-08 06:52:00
2:52 AM,71.1,64.9,81,29.93,10.0,South,4.6,-,N/A,,Clear,180,2013-09-08 07:52:00
3:52 AM,70.0,64.9,84,29.93,10.0,South,6.9,-,N/A,,Clear,180,2013-09-08 08:52:00
4:52 AM,70.0,64.9,84,29.93,10.0,South,5.8,-,N/A,,Clear,170,2013-09-08 09:52:00
5:52 AM,69.1,64.0,84,29.93,10.0,South,5.8,-,N/A,,Clear,180,2013-09-08 10:52:00
6:52 AM,71.1,64.9,81,29.92,10.0,South,6.9,-,N/A,,Clear,180,2013-09-08 11:52:00
7:52 AM,72.0,66.0,81,29.94,10.0,SSW,4.6,-,N/A,,Scattered Clouds,200,2013-09-08 12:52:00
8:52 AM,75.9,66.0,71,29.95,10.0,Calm,Calm,-,N/A,,Clear,0,2013-09-08 13:52:00
9:52 AM,79.0,64.9,62,29.95,10.0,SSW,8.1,-,N/A,,Clear,210,2013-09-08 14:52:00
10:52 AM,80.1,66.0,62,29.96,10.0,SW,4.6,-,N/A,,Clear,230,2013-09-08 15:52:00
11:52 AM,81.0,68.0,65,29.97,10.0,South,4.6,-,N/A,,Clear,170,2013-09-08 16:52:00
12:52 PM,87.1,69.1,55,29.96,10.0,SSE,8.1,-,N/A,,Clear,150,2013-09-08 17:52:00
1:52 PM,90.0,69.1,50,29.93,10.0,SW,8.1,-,N/A,,Clear,220,2013-09-08 18:52:00
2:52 PM,91.9,70.0,48,29.91,10.0,SSW,8.1,-,N/A,,Clear,210,2013-09-08 19:52:00
3:52 PM,93.0,69.1,45,29.89,10.0,South,8.1,-,N/A,,Clear,180,2013-09-08 20:52:00
4:52 PM,93.0,64.9,39,29.88,10.0,SW,10.4,-,N/A,,Partly Cloudy,220,2013-09-08 21:52:00
5:52 PM,90.0,66.9,46,29.88,10.0,SSW,8.1,-,N/A,,Clear,210,2013-09-08 22:52:00
6:52 PM,86.0,69.1,57,29.88,10.0,South,5.8,-,N/A,,Clear,190,2013-09-08 23:52:00
7:52 PM,81.0,70.0,69,29.89,10.0,South,3.5,-,N/A,,Clear,170,2013-09-09 00:52:00
8:52 PM,80.1,69.1,69,29.92,10.0,SE,8.1,-,N/A,,Clear,140,2013-09-09 01:52:00
9:52 PM,79.0,69.1,72,29.91,10.0,SSE,4.6,-,N/A,,Scattered Clouds,160,2013-09-09 02:52:00
10:52 PM,78.1,70.0,76,29.92,10.0,SSE,9.2,-,N/A,,Clear,160,2013-09-09 03:52:00
11:52 PM,77.0,69.1,76,29.92,10.0,South,9.2,-,N/A,,Clear,170,2013-09-09 04:52:00